Location: Rydu��towy
(50.0595°N, 18.4161°E)
Time: 15:44:06
(UTC+01:00)

ISS - Visible Passes

Search period start: 14 December 2018 00:00
Search period end: 24 December 2018 00:00
Orbit: 401 x 408 km, 51.6° (Epoch: 15 December)

Date Brightness Start Highest point End Pass type
(mag) Time Alt. Az. Time Alt. Az. Time Alt. Az.
14 Dec -0.4 17:16:36 10° WSW 17:17:43 11° SW 17:18:50 10° SSW visible
15 Dec -0.7 16:23:29 10° W 16:25:49 18° SW 16:28:09 10° S visible
23 Dec -0.3 06:15:03 10° SSE 06:16:01 11° SE 06:16:58 10° ESE visible
